Location: Hamburg
(53.5554°N, 9.9941°E)
Time: 08:32:55
(UTC+01:00)

ISS - Pass Details

Date: 12 January 2018
Orbit: 402 x 407 km, 51.6° (Epoch: 24 January)

Event Time Altitude Azimuth Distance (km) Brightness Sun altitude
Exits shadow 06:23:28 24° 209° (SSW) 899 -2.3 -18.0°
Drops below altitude 10° 06:26:10 10° 154° (SSE) 1,465 -0.5 -17.6°
Sets 06:28:29 0° 139° (SE) 2,323 0.9 -17.2°
